Weather Roundup
Issued by NWS Chicago, IL

Home | Current Version | Previous Version | Text Only | Print | Product List | Glossary Off
Versions: 1 2 3 4 5 6 7 8 9 10 11 12 13 14 15 16 17 18 19 20 21 22 23 24 25 26 27 28 29 30 31 32 33 34 35 36 37 38 39 40 41 42 43 44 45 46 47 48 49 50

000
NZUS59 KLOT 080812
HRRLOT

CHICAGO AREA WEATHER ROUNDUP
NATIONAL WEATHER SERVICE CHICAGO/ROMEOVILLE IL
200 AM CST THU DEC 08 2016

NOTE: "FAIR" INDICATES FEW OR NO CLOUDS BELOW 12,000 FEET WITH NO
SIGNIFICANT WEATHER AND/OR OBSTRUCTIONS TO VISIBILITY.

* THESE STATIONS ARE NOT UNDER NWS QUALITY CONTROL. THEY ALSO MAY NOT
  REPORT WEATHER SUCH AS PRECIPITATION OR FOG.

ILZ005-006-012>014-019>023-080900-
NORTHEAST ILLINOIS

CITY           SKY/WX    TMP DP  RH WIND       PRES   REMARKS
OHARE          FLURRIES  23  14  68 W21G32    30.14S WCI   8
MIDWAY         FLURRIES  24  13  62 W17G26    30.17R WCI  11
AURORA         CLOUDY    23  15  71 W25G31    30.18R WCI   7
LANSING*       CLOUDY    24  17  75 W20       30.18R WCI   9
JOLIET*        CLOUDY    25  16  70 W13G23    30.20R WCI  13
WAUKEGAN       CLOUDY    23  12  62 W15G23    30.11R WCI  10
DUPAGE AIRPORT CLOUDY    23  12  62 W25G32    30.15S WCI   7
WHEELING       CLOUDY    24  13  62 W15G24    30.15S WCI  11
KANKAKEE*      CLOUDY    24  15  69 W18G24    30.22R WCI  10
MORRIS*        CLOUDY    23  15  71 W20       30.20R WCI   8
LEWIS AIRPORT* CLOUDY    23  18  82 W18G26    30.18S WCI   8
NORTHERLY ISL    N/A     25  16  68 W14         N/A  WCI  13
$$

WIZ051-052-058>065-066-070>072-080900-
SOUTHEAST WISCONSIN

CITY           SKY/WX    TMP DP  RH WIND       PRES   REMARKS
MILWAUKEE      FLURRIES  24  13  62 W9        30.09R WCI  14
KENOSHA*       CLOUDY    22  13  68 W16G25    30.10R WCI   8
RACINE*        FLURRIES  23  14  68 W9        30.11R WCI  13
BURLINGTON     FLURRIES  21  13  71 W14G20    30.11R WCI   8
WAUKESHA       CLOUDY    19  12  73 W13G23    30.09R WCI   7
WEST BEND      CLOUDY    21  12  68 W20G26    30.05S WCI   6
$$

INZ001>003-010>013-019-020-080900-
NORTHWEST INDIANA

CITY           SKY/WX    TMP DP  RH WIND       PRES   REMARKS
GARY*          CLOUDY    26  16  65 W17G25    30.18R WCI  13
MICHIGAN CITY* NOT AVBL
RENSSELAER*    NOT AVBL
VALPARAISO     CLOUDY    24  15  68 W15       30.17R WCI  11
$$

LMZ740>746-080900-
SOUTHERN LAKE MICHIGAN

STATION/POSITION TIME  SKY/WX   TEMP WIND        PRES    VSBY
                                AIR  DIR/SP/G
                 (UTC)          (F)  (DEG/KT/KT) (MB)    (MI)
HARRISON CRIB    0740            26  270/ 26/ 29   N/A
BURNHAM HARBOR   0800            24  230/ 16/ 18   N/A
CALUMET HARBOR   0748            24  250/ 11/ 18 1020.8R
BURNS HARBOR     0743            27  270/ 21     1023.7R
MICHIGAN CITY    0740            26  240/ 21/ 23   N/A
$$

ABBREVIATIONS USED IN REMARKS
   TC - TEMPERATURE IN CELSIUS
  WCI - WIND CHILL INDEX
   HX - HEAT INDEX
  VSB - VISIBILITY
$$



USA.gov is the U.S. government's official web portal to all federal, state and local government web resources and services.